Location: Casteau
(50.5142°N, 4.0161°E)
Time: 18:28:42
(UTC+00:00)

S-56A Canister/Altair - Pass Details

Date: 04 August 2021
Orbit: 632 x 2500 km, 38.9° (Epoch: 20 September)

Event Time Altitude Azimuth Distance (km) Brightness Sun altitude
Rises 17:33:59 0° 270° (W) 5,890 13.8 15.6°
Reaches altitude 10° 17:37:52 10° 265° (W) 5,019 13.7 15.0°
Maximum altitude 17:51:29 46° 199° (SSW) 3,102 10.9 12.8°
Drops below altitude 10° 18:04:23 10° 133° (SE) 4,751 11.1 10.8°
Sets 18:07:58 0° 128° (SE) 5,561 11.3 10.3°
